www.pogodaiklimat.ru

Погода и климат >> Архив погоды >> Таиланд >> Тха Пхра Агромет


ПОГОДА в Тха Пхра Агромете

  • Прогноз погоды в Тха Пхра Агромете
  • Монитор погоды в Тха Пхра Агромете

АРХИВ ПОГОДЫ в Тха Пхра Агромете

Время (UTC), дата Ветер
(напр.,м/с)
 
Видим.   Явления Облачность Т
(С)
Тd
(С)
f
(%)
Тe
(С)
Тes
(С)
Комфортность P
(гПа)
Po
(гПа)
Тmin
(С)
Tmax
(С)
R
(мм)
R24
(мм)
S
(см)
00 16.04 штиль 0 8000 м дымка 8/0
[Cs]
+28.8 +24.3 77 +40 +42 очень
душно
1009.0 990.2 +26.7
03 16.04 штиль 0 10 км 8/0
[Cs]
+34.2 +24.4 57 +47 +65 опасность
перегрева
1010.1 991.6
06 16.04 Ю 3 10 км 8/3 600 м
[Sc Cs]
+38.3 +23.2 42 +48 +59 опасность
перегрева
1006.5 988.3
09 16.04 Ю 2 10 км 8/3 600 м
[Sc Cs]
+39.2 +22.2 38 +47 +52 опасность
перегрева
1003.5 985.4
12 16.04 штиль 0 9000 м зарница 9/3 600 м
[Cb cap Cs]
+35.7 +24.1 51 +47 +47 опасность
перегрева
1004.8 986.5 +40.2
15 16.04 штиль 0 8000 м мгла 8/1 600 м
[Sc Ac trans Cs]
+32.0 +23.3 60 +43 +43 опасность
перегрева
1007.8 989.2
18 16.04 штиль 0 7000 м дымка 3/0
[Cs]
+30.0 +23.8 69 +41 +41 опасность
перегрева
1007.4 988.7
21 16.04 штиль 0 7000 м дымка 3/0
[Cs]
+29.0 +23.6 73 +40 +40 очень
душно
1006.4 987.7
00 17.04 штиль 0 9000 м дымка 3/0
[Cs]
+28.5 +23.4 74 +39 +41 очень
душно
1008.0 989.2 +27.6
03 17.04 ЮЗ 2 10 км 3/0
[Cs]
+36.5 +22.8 45 +46 +61 опасность
перегрева
1008.9 990.6
06 17.04 Ю 7 10 км 8/5 600 м
[Cu med, cong Cs]
+39.7 +21.2 35 +47 +49 опасность
перегрева
1006.1 988.0
09 17.04 Ю 2 10 км 8/3 600 м
[Cu med, cong Cs]
+39.8 +22.3 37 +48 +52 опасность
перегрева
1002.6 984.5
12 17.04 штиль 0 10 км 8/3 600 м
[Cu med, cong Ac trans Cs]
+36.4 +21.8 43 +44 +44 опасность
перегрева
1004.1 985.8 +40.3
15 17.04 ЮЗ 3 8000 м гроза без осадков 10/6 300 м
[Cb cap Ac As]
+29.7 +20.7 58 +37 +37 очень
душно
1008.7 989.9
18 17.04 ЮВ 2 5000 м слаб. ливневой дождь, в посл. час гроза 10/4 600 м
[Sc As op]
+25.6 +21.9 80 +33 +33 очень
душно
1006.1 987.2 2
21 17.04 штиль 0 8000 м дымка {дождь} 8/0
[Cs]
+25.0 +22.3 85 +33 +33 очень
душно
1005.4 986.4 0.4
00 18.04 штиль 0 8000 м дымка {дождь} 3/0
[Cs]
+26.0 +22.1 79 +34 +36 очень
душно
1007.9 989.0 +24.3 2
03 18.04 Ю 3 10 км 3/0
[Cs]
+33.6 +23.6 56 +45 +57 опасность
перегрева
1008.3 989.8
06 18.04 ЮЗ 4 10 км 3/0
[Cs]
+37.9 +22.8 42 +47 +61 опасность
перегрева
1005.3 987.1
09 18.04 штиль 0 10 км 3/0
[Cs]
+39.4 +21.4 36 +47 +55 опасность
перегрева
1002.2 984.2
12 18.04 СЗ 3 10 км 4/0
[Cs]
+34.5 +23.1 52 +45 +45 опасность
перегрева
1003.7 985.3 +39.7
15 18.04 ЮЗ 6 10 км 8/0
[Ac lent Cs]
+32.0 +22.7 58 +42 +42 опасность
перегрева
1006.1 987.6
18 18.04 штиль 0 10 км 3/0
[Cs]
+29.5 +22.9 68 +39 +39 очень
душно
1004.7 986.0
21 18.04 Ю 5 10 км 3/0
[Cs]
+28.9 +21.8 66 +37 +37 очень
душно
1003.9 985.2
00 19.04 ЮЗ 4 10 км 3/0
[Cs]
+29.0 +23.5 72 +39 +40 очень
душно
1005.1 986.4 +27.9
03 19.04 ЮЗ 4 10 км 4/0
[Cs]
+34.9 +23.6 52 +46 +56 опасность
перегрева
1006.3 987.9
06 19.04 ЮЗ 8 10 км 4/1 600 м
[Cu hum Cs]
+38.1 +23.3 43 +48 +51 опасность
перегрева
1003.8 985.6
09 19.04 Ю 3 10 км 6/3 600 м
[Cu hum Cs]
+39.0 +22.5 39 +48 +51 опасность
перегрева
1000.4 982.4
12 19.04 штиль 0 10 км в посл. час дождь 6/3 600 м
[Cu hum Cs]
+35.5 +25.0 55 +49 +49 опасность
перегрева
1001.9 983.6 +40.1 0.0
15 19.04 Ю 4 10 км 4/0
[Cs]
+32.5 +20.7 50 +40 +40 очень
душно
1004.5 986.0
18 19.04 штиль 0 10 км 4/0
[Cs]
+30.1 +23.4 67 +41 +41 опасность
перегрева
1003.4 984.7
21 19.04 штиль 0 10 км 4/0
[Cs]
+29.8 +22.9 67 +40 +40 очень
душно
1002.6 984.0
00 20.04 штиль 0 8000 м дымка 8/0
[Cs]
+29.5 +23.7 71 +40 +42 очень
душно
1004.2 985.5 +28.9 0.0
03 20.04 штиль 0 10 км 3/0
[Cs]
+36.5 +22.5 45 +46 +66 опасность
перегрева
1004.6 986.4
06 20.04 штиль 0 10 км 3/1 600 м
[Cu hum Cs]
+40.6 +19.7 30 +45 +70 опасность
перегрева
1002.1 984.2
09 20.04 З 1 10 км 3/1 600 м
[Cu hum Cs]
+42.1 +21.6 31 +49 +56 опасность
перегрева
999.0 981.2
12 20.04 штиль 0 10 км 3/0
[Cs]
+37.4 +22.4 42 +46 +46 опасность
перегрева
999.7 981.6 +42.3
15 20.04 Ю 5 10 км 4/0
[Ac trans Cs]
+34.5 +21.9 48 +43 +43 опасность
перегрева
1002.4 984.1
18 20.04 Ю 8 10 км 4/0
[Cs]
+32.1 +22.3 56 +41 +41 опасность
перегрева
1002.0 983.5
21 20.04 ЮЗ 3 10 км 4/0
[Cs]
+30.5 +22.3 62 +40 +40 очень
душно
1001.2 982.7
00 21.04 Ю 7 10 км 4/0
[Cs]
+30.2 +22.3 63 +39 +40 очень
душно
1003.5 984.9 +29.5
03 21.04 Ю 5 10 км 3/0
[Cs]
+36.5 +21.1 41 +44 +52 опасность
перегрева
1004.5 986.3
06 21.04 Ю 7 10 км 3/1 600 м
[Cu hum Cs]
+40.4 +21.6 34 +47 +53 опасность
перегрева
1002.4 984.4
09 21.04 штиль 0 10 км 3/1 600 м
[Cu hum Cs]
+40.7 +21.8 34 +48 +56 опасность
перегрева
999.3 981.3
12 21.04 штиль 0 10 км 3/1 600 м
[Cu hum Cs]
+36.6 +22.1 43 +45 +45 опасность
перегрева
1000.3 982.2 +41.6
15 21.04 Ю 3 10 км 4/1 600 м
[Cu hum Ac lent Cs]
+32.6 +23.5 59 +44 +44 опасность
перегрева
1004.0 985.5
18 21.04 штиль 0 10 км 3/0
[Cs]
+31.7 +24.3 65 +44 +44 опасность
перегрева
1002.8 984.3
21 21.04 штиль 0 10 км 3/0
[Cs]
+30.1 +24.2 71 +42 +42 опасность
перегрева
1002.9 984.3
00 22.04 штиль 0 8000 м дымка 6/0
[Ac trans Cs]
+30.4 +24.1 69 +42 +44 опасность
перегрева
1004.9 986.3 +28.9
03 22.04 штиль 0 8000 м мгла 6/0
[Cs]
+35.1 +23.5 51 +46 +65 опасность
перегрева
1006.3 987.9
06 22.04 Ю 3 8000 м мгла 6/3 600 м
[Sc Cs]
+39.0 +22.5 39 +48 +59 опасность
перегрева
1003.6 985.5
09 22.04 нст 6 6000 м гроза без осадков 10/6 600 м
[Cb cap Ac As Cs]
+29.8 +23.6 69 +40 +41 очень
душно
1004.6 985.9 0.0
12 22.04 Ю 3 7000 м гроза, ливневой дождь 10/5 600 м
[Cb cap As op]
+25.0 +24.6 98 +35 +35 очень
душно
1007.6 988.6 +40.6 6
15 22.04 штиль 0 7000 м слаб. дождь {гроза} 10/5 600 м
[Sc Ac As]
+24.3 +24.1 99 +33 +33 очень
душно
1010.8 991.7 8
18 22.04 штиль 0 8000 м дымка {гроза, дождь} 10/5 600 м
[Sc Ac As Cs]
+25.2 +23.7 91 +34 +34 очень
душно
1005.8 986.8 0.1
21 22.04 Ю 3 8000 м дымка 10/4 600 м
[Sc Ac As Cs]
+25.0 +23.5 91 +34 +34 очень
душно
1007.3 988.3

 

Местоположение метеостанции Тха Пхра Агромет (Таиланд): широта 16.33 долгота 102.82 высота над уровнем моря 166 м.

В архиве по умолчанию представлена погода в Тха Пхра Агромете за последнюю неделю. Архивные данные за месяц целиком и за предыдущие месяцы, начиная с января 2011 года, Вы можете получить, выбрав интересующий диапазон дат из раскрывающегося списка и нажав кнопку "Ввод!".


*Определитесь, кто Вы:
робот инопланетянин человек

Внимание! Время в таблицах - всемирное. Для получения местного времени необходимо прибавить поправку, которая равна 7 ч.

Смотрите также архив погоды в соседних городах и на ближайших метеорологических станциях:

Погода в Кхонкэне (Таиланд) (11 км)
Погода в Косумпхисаи (Таиланд) (28 км)
Погода в Камаласаи (Таиланд) (81 км)
Погода в Рой Эт Агромете (Таиланд) (90 км)
Погода в Рой Эт (Таиланд) (97 км)
Погода в Чайяпхуме (Таиланд) (103 км)
Погода в Нонгбуалампху (Таиланд) (108 км)
Погода в Удонтхани (Таиланд) (117 км)
Погода в Бури-Рам (Таиланд) (131 км)
Погода в Тха Тум (Таиланд) (145 км)

Пояснения к столбцам:

Ветер - указаны скорость ветра в м/с - средняя за 10 мин, порывы в срок и между сроками (в фигурных скобках) и направление, откуда дует ветер: С - северный, СВ - северо-восточный, В - восточный, ЮВ - юго-восточный, Ю - южный, ЮЗ - юго-западный, З - западный, СЗ - северо-западный.
Видимость - горизонтальная дальность видимости в метрах или километрах. При видимости от 1 до 10 км при отсутствии осадков обычно наблюдается дымка, при ухудшении видимости до 1 км и менее - туман. В сухую погоду видимость может ухудшаться дымом, пылью или мглою.
Явления - указаны атмосферные явления, наблюдавшиеся в срок или в последний час перед сроком; фигурными скобками обозначены явления, наблюдавшиеся между сроками (за 1-3 часа до срока); квадратными скобками обозначены град или гололедные отложения с указанием их диаметра в мм.
Облачность - указаны через наклонную черту общая и нижняя облачность в баллах и высота нижней границы облаков в метрах; квадратными скобками обозначены формы облаков: Ci - перистые, Cs - перисто-слоистые, Cc - перисто-кучевые, Ac - высококучевые, As - высокослоистые, Sc - слоисто-кучевые, Ns - слоисто-дождевые, Cu - кучевые, Cb - кучево-дождевые. Подробнее классификацию облаков см. в Атласе облаков (PDF).
T - Температура воздуха - температура, измеренная на высоте 2 м над землей.
Td - Температура точки росы - температура, при понижении до которой содержащийся в воздухе водяной пар достигнет насыщения.
f - Относительная влажность воздуха - влажноcть воздуха, измеренная на высоте 2 м над землей.
Te - Эффективная температура - температура, которую ощущает одетый по сезону человек в тени. Характеристика душности погоды. При расчете учитывается влияние влажности воздуха и скорости ветра на теплоощущения человека.
Tes - Эффективная температура на солнце - температура, которую ощущает человек, с поправкой на солнечный нагрев. Характеристика знойности погоды. Зависит от высоты солнца над горизонтом, облачности и скорости ветра. Ночью, в пасмурную погоду, а также при ветре 12 м/с и более поправка равна нулю.
P - Атмосферное давление - приведенное к уровню моря атмосферное давление.
Po - Атмосферное давление - измеренное на уровне метеостанции атмосферное давление.
Tmin - Минимальная температура - минимум температуры воздуха на высоте 2 м над землей.
Tmax - Максимальная температура - максимум температуры воздуха на высоте 2 м над землей.
R - Количество осадков - Количество выпавших осадков за период времени, мм. При наведении курсора мыши на число - период времени, за который выпало указанное количество осадков.
R24 - Количество осадков - Количество выпавших осадков за 24 часа, мм.
S - Снежный покров - Высота снежного покрова, см. При наведении курсора мыши на число - состояние снежного покрова и степень покрытия местности в баллах.